GFSNGP_con_mucape_021.txt.gz
CAPE
85 3 4 48 56 105 47 103 204 256 144 108 784 897 1493 1771 2571 2716 2818 2481 2855 2698 2255 1795 1724 1969 1855 1607 1422 1432 1414 1344 1370 1309 1119 1162 680 388 226 184 66 24 51 26
103 26 0 2 0 0 71 78 162 211 182 286 998 1269 1051 2088 2676 2515 2505 2449 2822 2153 1567 1702 2301 2175 1866 1918 1794 1441 1364 1335 1723 1587 1332 1300 719 259 275 52 13 8 9 12
112 6 31 102 53 8 30 218 225 299 329 612 589 1381 1497 1956 2698 2440 2204 2426 2703 1739 1813 2243 2135 2210 2139 2067 2278 2003 2413 1794 1681 1809 1840 1414 882 349 61 9 7 9 11 13
159 114 84 180 164 189 61 38 128 238 278 303 1598 1590 1741 2022 2764 2690 2262 2622 2156 1682 2211 2516 2473 2223 2066 1701 1795 1762 1651 1482 1589 1808 1964 1693 1082 643 56 4 3 3 9 6
4 8 40 111 158 180 71 118 166 125 358 1043 1350 1732 2210 2548 2566 2808 2497 2644 2375 2154 2182 1804 1634 1518 1684 1600 1473 1288 849 277 208 569 1146 1310 1105 537 200 42 11 25 11 13
0 0 41 156 314 530 288 482 418 878 867 888 1052 222 2480 2646 3331 3294 3034 2730 2207 1786 1068 705 551 672 956 729 398 176 43 0 0 0 129 601 617 536 100 87 15 3 3 2
0 0 0 67 1184 1096 316 949 2178 1984 1807 1230 1262 2723 2655 2553 2415 2231 2041 1823 1644 1191 854 600 760 761 636 464 180 65 29 0 0 1 212 110 97 23 49 50 19 7 9 7
0 0 0 476 806 664 2400 2349 2459 2351 2094 2709 2601 1795 1485 1177 1143 1373 1294 1396 1270 1129 735 792 729 610 477 206 127 45 0 0 0 0 1 4 3 11 19 52 49 16 17 9
35 12 1506 1313 2125 2207 2252 2360 2579 2480 2110 2280 1595 1238 431 374 606 667 1036 1205 1067 797 588 622 614 481 294 115 13 0 0 0 0 0 0 1 11 11 16 7 5 21 3 2
91 146 890 1182 1667 2051 2082 2334 2374 2284 2159 1721 1571 811 431 292 290 597 830 887 445 384 307 321 381 119 0 0 0 0 0 0 0 0 0 2 5 24 2 14 19 9 16 13
109 1062 796 1381 1416 1559 1860 2007 2151 2212 2022 1884 1364 590 514 457 362 369 319 145 291 422 344 71 12 0 0 0 0 0 0 0 0 0 0 0 0 0 2 1 1 5 10 0
486 767 925 1171 1257 1309 1497 1681 1832 1681 1361 1303 843 538 624 582 405 391 362 377 240 72 12 3 0 0 0 0 0 0 0 0 0 0 0 0 0 0 6 11 4 0 3 3
137 381 717 886 967 1017 1247 1228 1412 1317 1030 763 720 672 614 400 514 405 181 48 19 26 0 0 0 0 0 0 0 0 0 0 0 0 0 0 0 0 0 6 6 12 14 6
48 120 535 365 508 641 957 986 750 818 418 465 461 430 460 321 154 79 13 0 6 0 0 0 0 0 0 0 0 0 0 0 0 0 0 0 0 0 0 0 0 0 0 0
51 92 111 272 297 418 515 723 771 722 418 274 231 213 159 112 68 62 31 3 0 0 0 0 0 0 0 0 0 0 0 0 0 0 0 0 0 0 0 0 0 0 0 0
62 78 124 130 170 194 205 425 583 507 399 660 443 195 213 124 30 30 0 1 8 0 0 0 0 0 0 0 0 0 0 0 0 0 0 0 0 0 0 0 0 0 0 0
98 109 77 231 211 62 71 119 427 450 536 526 434 229 129 46 13 0 0 0 6 2 13 10 0 0 0 0 0 0 0 0 0 0 0 0 0 0 0 0 0 0 0 0
147 150 151 205 193 152 19 7 36 553 531 471 204 93 132 48 15 12 1 14 11 10 0 0 0 0 0 0 0 0 0 0 0 0 0 1 0 2 3 1 0 0 0 0
89 139 152 166 225 241 183 85 89 393 652 370 226 227 157 113 110 35 3 3 11 0 0 0 0 0 0 0 0 0 0 2 2 10 10 0 13 22 22 21 16 9 4 0
141 162 171 205 222 253 261 106 173 191 310 602 435 433 301 196 154 54 59 42 7 0 0 0 0 0 0 0 0 1 11 14 21 21 17 31 40 45 26 12 21 18 24 23
197 305 326 364 373 346 393 312 137 675 560 748 666 658 407 169 108 74 66 28 13 0 0 0 0 0 3 0 0 5 33 28 60 59 36 10 14 41 7 22 14 32 26 36
320 403 471 504 651 729 700 407 217 422 594 917 613 540 313 161 241 139 150 1 0 0 0 0 13 0 2 1 25 15 26 40 8 16 20 21 3 12 12 12 13 24 48 40
102 374 562 660 832 897 824 752 683 917 914 841 741 375 425 263 316 163 61 86 7 0 0 0 0 0 1 13 0 0 3 0 0 0 0 0 0 14 14 16 3 5 17 32
59 362 519 1017 1202 1190 1198 1149 1162 1137 1037 826 644 540 574 638 66 49 36 3 0 0 0 0 0 0 1 1 0 0 0 1 0 0 0 0 0 6 10 15 13 17 19 9
175 417 539 661 598 568 529 361 400 351 245 243 223 115 57 10 11 16 17 1 1 0 0 4 0 0 3 1 3 0 0 0 0 0 0 0 9 11 11 12 15 21 26 37
208 406 399 398 387 364 291 160 116 176 140 82 87 38 22 15 12 0 0 0 0 0 1 1 0 0 0 0 0 0 0 0 1 11 2 19 22 28 32 28 30 31 31 18
36 164 334 114 169 158 68 64 42 24 30 41 3 2 0 0 0 1 10 7 4 0 0 0 0 0 0 0 0 0 19 7 0 0 7 13 16 18 22 19 21 8 1 0

GFSNGP_con_mucape_024.txt.gz
CAPE
20 8 27 87 147 82 29 34 99 149 242 188 126 85 68 642 3323 3199 3211 2952 3124 2989 3180 2522 2542 2446 2206 1715 1913 2162 2298 1893 2526 1593 1592 1392 1007 875 626 399 15 91 105 39
59 92 54 16 2 0 7 22 103 30 158 219 149 56 218 943 2872 3548 3385 3002 3164 3103 2425 2287 2075 2569 2730 2641 2471 2568 2331 1645 2535 1917 1844 1336 1114 707 528 77 5 173 34 6
131 106 83 62 0 4 10 8 2 114 461 351 206 141 316 2457 3070 2752 2982 3125 3257 2447 2111 2460 2515 3319 2894 3373 3203 2589 2138 2195 1918 1712 1787 1227 1053 495 359 16 19 57 27 10
324 316 98 70 61 33 181 91 1 159 529 295 97 4 457 1890 2924 2917 2718 3260 2963 2106 2272 2785 2626 2959 3021 2583 2520 2109 1776 1467 1511 1470 1726 1513 1251 644 406 57 59 1 19 12
231 88 55 21 61 113 180 158 1169 1063 797 486 302 281 2169 2073 2728 3138 2848 3552 2438 2450 2936 2450 2647 2434 2573 2156 2425 1436 1076 759 301 357 789 1682 985 805 681 148 34 3 19 21
47 1 4 152 0 280 462 261 1704 1197 525 431 91 15 2449 3903 3859 3690 3332 2953 2786 2633 1956 1960 1803 1763 1943 1341 1052 944 555 261 14 0 47 858 920 504 299 50 17 25 0 0
0 0 0 0 12 810 649 1504 2096 1629 958 482 431 796 3130 3241 2979 2953 2784 2165 2001 1870 1741 1395 928 1058 993 790 454 385 142 70 19 1 53 298 314 134 173 25 67 17 0 0
19 0 0 0 300 1121 2351 2475 2243 2107 2003 3008 2524 2348 2446 1852 1932 1973 1856 1611 1606 1321 1185 781 651 775 742 626 417 184 108 17 0 0 1 87 103 54 116 17 1 16 23 19
112 50 1821 1807 2315 2413 2349 2377 2325 2316 2097 2247 1836 1443 1109 995 1642 1409 1504 1259 1052 1136 1058 735 719 564 508 451 284 109 0 0 0 0 0 4 6 11 13 14 17 9 4 17
332 612 1315 1646 1638 1606 1966 2098 1997 1910 2004 1778 1470 773 544 664 849 897 906 854 962 1006 729 524 469 425 394 197 0 0 0 0 0 0 0 0 1 0 7 8 4 14 16 16
316 990 950 758 1153 1201 1515 1903 2145 2195 2129 1929 1252 772 522 906 626 551 590 746 925 604 249 269 393 140 26 0 0 0 0 0 0 0 0 0 0 0 0 0 1 1 3 10
899 686 1079 1030 1109 998 1164 1198 1484 1700 1676 1532 1087 778 327 519 421 438 360 285 182 317 280 139 12 1 0 0 0 0 0 0 0 0 0 0 0 0 0 0 5 17 8 8
191 98 124 835 561 695 682 1000 1341 1332 1295 774 544 560 597 587 438 366 446 292 251 96 28 18 0 0 0 0 0 0 0 0 0 0 0 0 0 0 0 0 0 0 2 17
12 17 196 384 295 276 342 601 836 895 471 531 361 347 455 328 382 459 161 12 0 0 4 0 0 0 0 7 21 15 1 0 11 10 0 0 1 0 0 0 0 0 0 0
13 0 25 34 166 126 185 260 916 925 492 273 239 152 276 231 158 57 1 0 2 14 12 0 0 0 6 0 0 0 0 0 0 0 0 0 0 0 0 0 0 0 0 0
2 0 2 5 34 121 105 191 375 735 705 433 389 268 208 193 36 0 0 11 16 11 5 1 3 14 2 0 0 0 0 0 0 0 0 0 0 0 0 0 0 0 0 0
22 11 25 64 153 199 68 92 72 143 582 541 342 398 188 143 52 45 36 0 0 1 28 18 7 0 0 0 0 0 0 0 0 0 0 0 0 0 0 0 0 0 0 0
7 12 21 15 50 88 126 79 34 248 568 349 441 305 187 108 49 39 3 1 7 15 7 2 0 0 0 0 0 0 0 0 0 0 0 0 0 0 1 0 0 0 0 0
49 51 49 52 45 51 67 59 72 40 399 414 358 320 287 79 78 33 0 5 13 0 10 0 0 0 0 0 0 0 0 0 0 4 6 1 12 20 17 37 30 31 8 2
31 40 86 67 67 101 89 113 160 292 440 415 264 327 417 386 112 44 8 8 6 9 0 0 0 0 0 0 0 0 10 18 40 12 21 20 31 41 22 2 9 13 19 40
5 30 83 69 120 148 154 146 166 269 158 256 376 639 626 466 291 127 49 20 31 0 0 0 0 0 0 0 0 7 32 42 40 31 10 22 27 10 7 12 12 9 14 33
6 0 28 121 270 323 456 390 416 401 446 330 248 296 686 554 326 125 163 17 1 0 0 0 0 2 0 0 0 6 8 6 7 7 5 6 6 14 20 36 2 7 21 45
6 14 37 200 427 624 623 536 746 267 228 432 759 714 560 290 127 69 128 0 13 8 0 0 0 0 0 5 2 1 1 0 1 4 1 2 0 0 0 0 2 7 25 4
0 4 132 293 552 861 631 321 715 647 978 1050 866 669 337 34 5 32 73 30 10 24 0 0 0 15 14 7 0 0 1 4 7 0 0 0 0 0 25 18 11 17 21 14
23 87 387 723 658 412 222 155 202 217 267 323 233 95 50 33 30 6 15 2 4 3 2 2 0 9 9 0 0 3 1 1 0 0 0 1 13 19 10 14 5 7 0 0
243 338 432 517 413 321 222 142 95 122 100 86 77 96 101 30 27 30 19 0 0 0 2 3 0 0 1 0 0 0 0 0 0 4 5 17 9 3 0 0 0 0 0 0
66 129 115 158 68 78 50 49 67 72 65 62 79 86 52 30 16 0 0 2 0 3 1 2 1 0 0 0 0 0 19 0 0 0 4 0 0 0 0 0 0 0 0 0

GFSNGP_con_mucape_030.txt.gz
CAPE
22 12 0 4 14 30 38 12 6 13 0 61 203 235 240 276 634 370 115 609 866 1235 1447 1434 1381 1179 329 950 1306 1401 1168 1021 1083 705 669 314 288 155 0 0 0 0 0 0
18 21 8 0 0 12 16 149 58 10 43 80 217 97 224 128 287 753 895 1468 1113 1260 1323 1326 1410 1341 1012 1356 1365 1388 1238 1065 1164 935 766 553 316 213 71 0 0 0 0 0
0 4 59 0 19 19 443 428 342 170 26 178 214 130 205 587 300 523 1337 1769 1438 1577 1564 1428 1381 1204 1225 1373 1400 1359 1491 1421 1246 992 829 619 484 349 271 43 45 1 0 0
145 141 21 48 124 815 681 568 349 185 76 56 304 241 536 360 231 290 903 1536 1491 1461 1298 1222 1333 1856 1441 1443 1451 1379 1296 1136 1138 939 888 695 540 449 215 114 71 9 2 2
47 26 0 76 327 258 287 544 326 367 275 238 456 290 549 493 207 1 229 714 1702 1495 1272 1437 1908 1770 1604 1378 1528 1034 1018 1105 970 947 1019 890 970 670 422 283 30 30 5 8
0 0 0 10 144 288 423 253 500 237 335 221 89 69 44 0 1421 1764 1030 1179 1912 1845 1655 1874 1647 1205 680 499 666 871 823 716 557 253 118 783 678 551 400 139 24 12 17 16
0 0 0 0 0 83 30 33 222 276 91 145 76 55 44 467 2137 1908 1821 1864 1993 1783 1753 1610 1462 886 335 309 634 579 672 484 217 60 164 470 582 365 258 13 13 6 21 10
0 0 0 1564 1235 392 222 828 546 630 117 59 61 218 1736 1708 2080 1913 1954 1898 1746 1645 1456 1219 1311 823 413 419 649 652 507 282 131 17 19 198 283 195 96 28 30 35 17 18
0 0 1316 1099 1533 1569 806 1119 942 813 413 350 285 890 1586 1694 1946 1896 1821 1685 1620 1633 1328 1081 938 812 807 757 658 584 361 189 6 0 2 21 99 66 37 30 41 43 19 20
610 729 799 769 847 1032 1345 1201 1373 1007 434 608 915 1171 1094 1272 1293 1316 1264 1169 1101 906 772 763 738 573 544 599 460 328 105 0 0 0 0 1 2 20 38 30 25 7 24 21
310 321 336 279 282 310 1199 1292 1186 1170 974 1079 1064 811 954 1058 1050 1001 953 718 683 397 672 645 551 522 481 389 291 68 0 0 0 0 0 0 0 3 4 6 9 14 9 9
135 226 318 250 147 242 1009 1343 1133 977 882 890 805 534 658 733 749 716 609 370 280 621 588 527 312 244 241 110 5 0 0 0 0 0 0 0 0 0 0 0 0 0 1 4
23 33 119 288 369 330 635 1081 798 858 941 805 671 649 440 380 502 524 514 397 491 376 136 185 181 215 179 47 0 0 0 0 0 0 0 0 0 0 0 0 0 0 0 0
16 29 74 38 22 137 865 771 716 622 596 529 448 344 206 133 396 274 284 396 262 191 170 159 111 48 0 0 0 0 0 0 0 0 0 0 0 0 0 0 0 0 0 0
0 0 6 1 0 3 381 617 539 459 432 341 268 205 199 124 39 128 200 259 276 220 110 14 0 0 0 0 0 0 0 0 0 0 0 0 0 0 0 0 0 0 0 0
0 0 0 5 13 4 31 281 344 537 449 408 291 202 169 158 56 196 266 234 165 78 18 0 0 0 0 0 0 0 0 0 0 0 0 0 0 0 0 0 0 0 0 0
4 0 0 0 0 0 10 41 29 30 361 506 413 312 221 114 23 42 0 28 43 31 24 25 6 0 0 0 0 0 0 0 0 0 0 0 0 0 0 0 0 0 0 0
0 0 7 0 0 0 0 0 2 16 37 134 326 365 305 228 187 94 36 17 42 35 21 9 3 0 0 0 0 0 0 0 0 0 0 0 0 0 0 0 0 0 0 0
12 11 5 0 0 0 8 28 30 23 157 323 264 273 222 138 117 73 28 23 12 22 42 7 0 0 0 0 0 0 0 0 0 0 0 0 0 0 1 0 0 0 0 0
3 2 0 0 0 0 0 23 36 56 92 361 301 235 179 131 79 28 13 6 7 19 5 7 0 0 0 0 0 0 0 0 0 0 0 0 0 7 7 10 13 2 0 0
0 0 0 0 0 0 0 9 23 20 48 285 329 198 199 233 116 37 28 20 2 20 4 2 7 0 0 0 0 0 0 0 0 0 0 1 8 11 11 11 0 0 0 0
0 0 0 0 0 0 0 0 5 8 39 117 330 198 105 173 118 68 28 38 28 7 0 0 0 0 0 0 0 0 0 0 0 2 10 7 4 12 15 14 14 15 9 1
0 0 0 0 0 0 0 0 1 0 140 296 320 43 50 110 118 94 58 15 34 6 6 0 0 0 0 0 0 0 0 2 6 16 9 8 16 16 8 12 12 2 4 7
0 0 0 0 0 8 2 0 12 4 111 262 200 126 187 147 80 83 59 23 0 10 1 0 0 0 0 0 0 0 2 10 13 3 5 6 7 1 0 5 1 0 0 0
18 0 0 0 0 8 38 3 0 0 0 0 80 120 104 81 91 103 75 40 39 7 6 1 2 5 8 16 19 11 9 17 9 0 2 3 0 0 0 0 0 0 0 0
22 6 54 49 136 66 55 3 0 1 2 0 0 7 49 52 43 66 76 63 10 20 7 5 0 16 10 23 8 7 16 21 2 0 0 0 0 0 0 0 0 0 0 0
24 24 47 25 14 44 56 0 11 7 29 38 0 62 10 0 4 4 23 23 0 1 0 0 2 4 10 9 5 1 0 0 0 0 0 0 0 0 0 0 0 0 0 0

GFSNGP_con_mucape_033.txt.gz
CAPE
0 0 2 10 5 7 6 13 0 0 5 2 213 240 282 311 413 352 39 211 1093 1506 1565 1315 1106 1165 467 171 272 589 1169 958 876 674 512 349 261 186 27 0 0 0 0 0
0 0 4 7 34 2 51 285 155 58 33 74 177 278 178 218 264 459 587 320 615 674 760 1250 1024 1117 139 647 759 1151 1440 1080 949 827 674 449 307 257 114 22 15 0 0 0
7 25 50 54 34 173 403 319 207 92 70 233 295 279 114 81 147 94 155 763 825 80 712 574 488 712 279 949 1102 1321 1401 1272 1050 1002 870 601 346 241 120 30 18 10 0 0
10 22 28 40 559 385 522 500 223 119 115 216 224 169 90 272 322 278 443 1014 1265 441 850 875 334 431 348 964 1183 1370 1558 1455 1253 928 871 712 343 356 241 65 50 3 1 0
22 39 56 441 635 197 246 568 384 154 314 384 251 169 248 293 242 322 21 720 1454 1001 1145 1125 868 751 741 853 1125 1273 1206 1065 923 902 892 579 473 441 431 204 136 10 10 3
27 31 3 0 41 480 112 0 437 310 236 335 198 114 78 266 1216 1296 1639 1514 675 1314 1324 1141 1227 1057 827 761 567 264 507 478 574 550 816 782 799 546 380 188 113 12 9 14
15 2 0 0 778 175 0 0 543 348 245 261 162 102 165 831 877 1320 1634 1482 1353 1462 1173 1233 883 819 391 137 3 14 130 282 343 223 77 327 514 595 298 185 167 12 14 11
0 0 0 985 1507 194 186 708 488 520 211 71 104 1084 1527 1248 1228 1495 1531 1714 1618 1404 1212 1154 831 704 361 231 18 48 183 467 365 128 121 299 442 492 315 165 33 13 27 11
0 0 1003 1313 1471 1156 885 900 801 758 194 81 486 789 1505 1528 1516 1663 1662 1486 1400 1499 1360 1038 887 862 624 433 232 319 461 386 171 24 13 138 306 230 102 37 35 37 50 16
375 591 1034 1348 1431 1464 1599 1522 1478 965 482 473 240 954 1191 1440 1396 1439 1455 1317 1127 1054 840 673 767 606 552 543 485 370 282 189 39 0 1 43 135 98 40 34 33 39 41 19
365 345 451 572 635 771 748 579 1168 1058 627 521 526 520 862 1059 1130 1095 769 613 482 542 294 268 433 410 329 367 310 282 148 23 0 0 0 4 4 12 19 23 23 13 13 3
144 298 237 237 335 684 1141 1296 1102 1057 806 781 919 836 802 931 919 763 685 732 472 211 439 479 490 396 268 215 132 62 19 0 0 0 0 0 0 0 1 2 2 0 0 0
58 236 218 225 260 705 1185 1160 981 796 714 630 693 679 710 654 497 328 618 615 534 213 218 117 104 99 150 152 93 47 4 0 0 0 0 0 0 0 0 0 0 0 0 0
134 127 90 75 106 867 898 903 728 643 612 622 585 525 423 329 247 229 178 145 205 161 157 79 85 89 55 30 23 0 0 0 0 0 0 0 0 0 0 0 0 0 0 0
17 44 51 21 22 467 690 614 449 417 399 360 328 264 180 132 76 46 36 21 102 32 99 125 101 14 0 0 0 0 0 0 0 0 0 0 0 0 0 0 0 0 0 0
12 1 0 8 26 42 162 315 337 357 403 401 306 224 158 134 127 63 10 2 34 57 125 72 10 0 0 0 0 0 0 0 0 0 0 0 0 0 0 0 0 0 0 0
39 28 4 0 0 0 0 0 0 2 326 362 332 260 231 189 189 55 0 0 0 92 50 48 16 0 0 0 0 2 0 0 0 0 0 0 0 0 0 0 0 0 0 0
77 52 4 0 1 0 1 2 0 3 25 61 197 275 363 322 243 146 28 29 6 0 5 19 25 12 0 0 0 0 0 0 0 0 0 0 0 0 0 0 0 0 0 0
20 3 6 7 16 11 1 13 36 6 12 46 176 186 336 275 218 173 44 39 31 11 10 25 11 5 0 0 0 0 0 0 0 0 0 0 0 0 0 0 0 0 0 0
53 34 16 2 1 0 0 0 13 0 3 25 223 204 194 139 115 114 91 60 2 13 3 5 0 0 0 0 0 0 0 0 0 0 0 0 0 5 2 0 1 5 2 1
0 0 0 0 0 0 0 0 0 0 0 4 76 215 158 117 147 154 113 53 31 22 12 0 0 0 0 0 0 0 0 0 0 0 0 0 0 2 0 0 0 7 16 15
0 0 0 0 0 0 0 0 0 0 0 0 0 118 264 229 177 173 109 68 44 20 8 9 4 5 0 0 0 0 0 0 0 0 0 1 5 12 5 0 10 19 13 7
0 0 0 0 0 0 0 0 0 0 0 0 13 116 244 214 250 220 126 67 55 39 18 7 13 2 3 0 0 0 0 0 0 3 5 12 39 10 1 7 13 11 11 12
0 0 0 0 0 0 1 11 10 0 0 0 124 113 247 195 215 218 133 123 107 36 1 6 1 2 3 0 0 0 0 0 2 2 15 8 7 4 10 5 3 1 0 0
27 23 0 1 8 2 1 1 0 0 1 2 9 75 221 209 128 158 142 69 93 38 10 7 10 4 0 0 0 0 2 3 5 7 0 7 6 0 0 0 0 0 0 0
24 9 22 31 8 74 87 29 6 4 11 11 2 1 179 218 243 229 168 116 37 25 30 10 3 0 22 11 5 12 16 8 9 16 14 3 0 0 0 0 0 0 0 0
31 32 34 8 5 39 38 0 2 0 3 14 18 15 71 178 124 131 93 23 22 1 4 3 4 0 0 3 8 18 21 8 1 0 0 0 0 0 0 0 0 0 0 0

GFSNGP_con_mucape_036.txt.gz
CAPE
2 12 2 4 0 0 0 0 0 0 0 0 1 53 78 259 186 312 440 653 1402 1562 1136 726 704 957 1165 764 258 601 1095 1091 881 880 625 460 178 118 62 38 8 0 0 0
0 13 47 28 11 6 3 18 21 27 2 28 50 17 170 244 202 159 184 268 242 870 1149 699 507 789 963 213 218 338 794 1222 977 911 678 493 204 146 75 13 0 1 0 0
1 4 2 6 14 48 255 252 150 26 24 52 84 99 213 177 92 137 170 156 581 614 700 520 104 202 247 194 150 184 900 1279 1082 991 919 594 406 145 80 23 7 2 2 0
45 35 24 165 422 286 319 401 176 90 70 158 237 244 220 141 230 115 50 222 458 970 548 394 38 0 0 139 190 459 912 1228 1035 1008 879 692 438 196 123 101 16 16 11 9
41 37 76 506 502 162 150 213 269 143 177 214 267 240 114 320 143 100 753 277 455 1317 773 638 291 39 58 212 214 251 754 1150 1316 897 720 700 508 242 172 271 146 44 8 11
28 26 24 37 57 311 55 6 393 220 268 317 294 106 9 76 713 999 1399 1243 972 1011 1100 897 921 367 168 293 241 382 718 798 638 660 696 614 597 367 339 232 80 61 10 11
24 18 12 26 214 321 0 0 138 328 225 212 126 74 214 768 1502 1451 1603 1476 1055 1150 1317 1238 888 773 670 553 482 635 167 155 227 287 328 300 562 798 383 301 25 40 7 20
25 2 12 645 1283 60 121 605 659 440 353 224 118 1049 1355 1133 1682 1444 1363 1437 1456 1385 1296 1119 835 648 823 714 496 178 43 48 73 189 227 370 445 545 414 346 114 42 15 30
0 0 662 1113 1174 1091 642 720 559 582 472 235 406 793 1458 1198 1260 1235 1230 1216 1252 1302 1185 1305 942 772 475 272 196 143 111 202 214 392 126 182 209 306 363 73 59 14 35 36
198 299 1112 1407 1354 1437 1502 1440 1372 1062 647 515 493 1143 1228 1274 1264 1168 1022 954 743 657 689 704 644 718 624 536 484 278 314 359 253 149 9 32 237 190 127 88 17 33 43 46
341 565 874 1006 1074 1111 1089 997 1244 1513 671 562 579 778 1039 1064 1088 973 612 429 300 229 230 249 177 280 264 437 376 375 249 142 53 2 3 4 18 85 26 28 25 38 32 28
196 419 351 506 531 665 1055 1213 1141 1003 856 850 844 742 816 879 889 765 597 415 265 173 54 188 197 232 177 147 138 103 56 42 1 0 0 4 5 5 10 8 20 12 7 2
302 291 311 379 473 783 1224 1070 867 615 612 531 575 592 575 540 460 388 307 149 333 52 43 25 21 0 21 49 75 73 58 37 1 0 0 0 0 0 0 0 0 0 0 0
291 149 78 107 543 891 948 807 707 591 533 553 453 422 352 284 187 132 102 24 11 44 7 1 1 15 33 59 45 27 0 0 0 0 0 0 0 0 0 0 0 0 0 0
185 79 31 36 126 604 641 570 342 311 329 304 312 296 205 163 103 64 16 0 0 0 2 3 27 58 70 21 4 0 0 0 0 0 0 0 0 0 0 0 0 0 0 0
51 59 9 2 64 208 173 191 168 128 243 283 268 178 114 85 68 44 0 0 0 0 2 3 6 8 2 0 0 0 0 0 0 0 0 0 0 0 0 0 0 0 0 0
22 23 12 3 0 0 0 0 0 0 0 32 126 105 111 99 102 55 9 0 0 0 0 1 1 0 0 0 0 0 0 0 0 0 0 0 0 0 0 0 0 0 0 0
33 29 32 24 12 0 0 2 0 0 0 0 0 3 51 90 129 122 96 63 9 4 1 0 0 0 8 13 11 8 0 0 0 0 0 0 0 0 0 0 0 0 0 0
50 58 65 64 31 0 1 10 18 13 5 0 0 0 29 56 97 135 106 87 65 24 5 0 0 2 26 11 5 0 0 0 0 0 0 0 0 0 0 0 0 3 9 7
60 60 47 24 13 12 3 0 0 1 9 5 0 3 58 59 56 50 52 71 73 48 8 5 6 9 1 3 0 0 0 0 0 0 0 0 0 0 1 0 0 0 8 9
15 9 0 0 0 0 0 0 0 0 0 0 0 0 0 13 64 53 55 84 80 29 4 9 0 0 0 0 0 0 0 0 0 0 0 0 0 1 6 17 9 0 2 11
0 0 0 0 0 0 0 0 0 0 0 0 0 0 0 0 45 140 117 105 82 56 33 10 0 1 0 0 1 0 1 0 0 0 0 0 1 14 14 18 7 2 13 16
0 0 0 0 1 0 0 0 0 0 0 0 0 0 0 0 4 123 163 150 123 78 41 22 20 13 3 3 1 0 0 0 0 0 0 5 16 16 7 8 14 10 19 19
0 1 0 0 0 0 0 0 0 1 1 0 3 3 0 0 14 117 215 173 134 145 87 55 48 14 0 0 0 0 19 10 9 19 18 6 0 1 2 10 15 11 1 0
1 23 17 11 34 26 11 9 4 5 1 1 0 0 0 4 69 185 229 245 213 170 145 80 7 4 0 4 8 16 22 13 14 12 9 3 3 1 1 5 0 0 0 0
44 43 50 43 6 11 33 10 2 2 0 0 0 0 0 1 202 235 205 219 300 236 74 9 6 1 7 8 1 19 17 14 11 6 4 7 11 11 0 0 0 0 0 0
25 26 21 1 1 14 13 6 0 0 6 15 5 2 2 3 75 180 241 209 222 74 0 0 0 17 13 0 0 1 4 5 14 23 18 3 0 0 0 0 0 0 0 0